Погода в Арроутауне

Новая Зеландия     44°56′18″S   168°49′55″E
темп.,
°C
ветер,
м/с
пор.,
м/с
влажн.,
%
обл.,
%
осадки,
мм/ч
давл.,
гПа
погр.,
м
12 августа, пт
пт1200:00−6с019669 0.0 102815
03:00−6зюз119865 0.0 102770
06:00−5з019688 0.0 1027137
09:00−5з119474 0.0 1028176
12:00−1зсз01825 0.0 1026217
15:00+2зюз11778 0.0 1024298
18:00−3в11905 0.0 102511
21:00−4юв12905 0.0 102715
13 августа, сб
сб1300:00−5ююв12918 0.0 102818
03:00−5ю129214 0.0 102825
06:00−4ю119418 0.0 102933
09:00−3юз118710 0.0 102965
12:00+2зсз11818 0.0 1028257
15:00+4зсз128016 0.0 1025393
18:00−1ссз119214 0.0 102710
21:00−3з119612 0.0 102911
14 августа, вс
вс1400:00−3з119521 0.0 102914
03:00−4зсз119417 0.0 102913
06:00−4з1194100 0.0 102911
09:00−2з129113 0.0 102972
12:00+3зсз1274100 0.0 1026320
15:00+5зсз227092 0.0 1023471
18:000зсз1189100 0.0 102310
21:00−1з1291100 0.0 102511
15 августа, пн
пн1500:00−2зсз1195100 0.0 102612
03:00−3ссв0195100 0.0 102611
06:00−2с0093100 0.0 102613
09:000всв1183100 0.0 102584
12:00+3всв1273100 0.0 1022212
15:00+4всв2282100 0.0 1019189
18:000всв2298100 0.0 101923
21:00+1всв2299100 0.0 101855
16 августа, вт
вт1600:00+2всв2299100 0.5 101545
03:00+2с2299100 3.3 101440
06:00+1зюз11100100 3.3 101412
09:00+2с1199100 0.0 101427
12:00+5сз229572 0.0 1013200
15:00+7с228438 0.0 1011405
18:00+3ссв22925 0.1 101312
21:00+1ссз22925 0.0 101513